[[{"header":{"parameterUnit":"m.s-1","parameterCategory":1,"la1":30.2991,"la2":30.254,"lo1":-89.0895,"lo2":-89.0444,"dy":0.0017,"dx":0.0017,"nx":28,"ny":28,"refTime":"2025-04-12T21:00:00:Z","depth":0,"parameterNumber":2,"parameterNumberName":"U-component_of_WINDS"},"data":[0,0,0,0,0,0,0,0,0,0,0,0,0,0,0,0,0,0,0,0,0,0,0,0,0,0,0,0,0,0,0,0,0,0,0,0,0,0,0,0,0,0,0,0,0,0,0,0,0,0,0,0,0,0,0,0,0,0,2.9141,2.9142,0,2.9239,2.924,2.9241,2.9211,2.9209,2.9207,2.9205,2.9303,2.9308,2.9312,0,0,0,0,0,0,0,0,0,0,0,0,0,2.8923,2.8927,2.9141,2.9142,2.9143,2.9239,2.924,2.9241,2.9211,2.9209,2.9206,2.9204,2.9302,2.9307,2.9313,0,0,0,0,0,0,0,0,0,0,0,0,0,2.9019,2.8929,2.914,2.914,2.9141,2.9238,2.924,2.9242,2.9212,2.9209,2.9206,2.9203,2.93,2.9307,2.9314,2.9417,0,0,2.9334,2.9337,0,0,0,0,0,0,0,0,2.9013,2.9027,2.9139,2.914,2.9141,2.921,2.9199,2.93,2.9213,2.9185,2.9205,2.9201,2.9275,2.9283,2.9308,2.9422,2.9426,2.9335,2.9339,2.9342,2.9344,0,0,0,0,0,0,0,2.9007,2.9022,2.9179,2.914,2.9142,2.9133,2.9143,2.9218,2.9246,2.9187,2.9185,2.9197,2.9275,2.9302,2.931,2.9427,2.9335,2.9341,2.9345,2.9348,2.9625,2.9628,0,0,0,0,0,0,2.9,2.9017,2.9176,2.9182,2.9069,2.9139,2.9151,2.9191,2.9245,2.925,2.92,2.9195,2.9292,2.9303,2.9314,2.9434,2.9342,2.9348,2.9352,2.9621,2.9625,2.9629,0,0,0,0,0,0,2.8995,2.9014,2.9172,2.9099,2.9119,2.9147,2.9191,2.9194,2.9221,2.9254,2.9259,2.9223,2.929,2.9304,2.939,2.9438,2.9351,2.9357,2.9617,2.9623,2.9627,2.9679,0,0,0,0,0,0,2.8989,2.9013,2.9054,2.91,2.9123,2.9249,2.9194,2.9198,2.9233,2.9229,2.9277,2.9282,2.9288,2.938,2.9397,2.9445,2.9363,2.9613,2.962,2.9626,2.9673,2.9685,2.9695,0,0,0,0,0,2.8982,2.9065,2.9056,2.9075,2.9175,2.9252,2.9264,2.927,2.9238,2.9277,2.9298,2.9281,2.943,2.939,2.9408,2.9459,2.961,2.9618,2.9625,2.9668,2.9683,2.9695,0,0,0,0,0,0,2.9024,2.9072,2.9062,2.9164,2.9204,2.9247,2.9298,2.9286,2.9336,2.933,2.9335,2.9346,2.9433,2.9455,2.9409,2.9559,2.9515,2.9527,2.9541,2.9556,2.9567,2.9558,2.9368,0,0,0,0,0,2.9045,2.9105,2.9143,2.9229,2.9249,2.927,2.9304,2.9305,2.9346,2.9363,2.939,2.943,2.9486,2.9522,2.9576,2.9677,2.9684,2.9721,2.9732,2.9741,2.975,2.98,2.9815,2.9653,2.9653,2.9653,0,0,2.9089,2.9123,2.916,2.9238,2.9269,2.9328,2.9285,2.9351,2.9394,2.9373,2.9455,2.9476,2.9521,2.9614,2.9656,2.9635,2.9796,2.975,2.9757,2.9761,2.9809,2.9824,2.9838,2.9658,2.9657,2.9656,0,0,2.9199,2.9233,2.9305,2.9337,2.9385,2.9397,2.9415,2.9459,2.9472,2.9554,2.9538,2.959,2.9687,2.9718,2.9746,2.9865,2.9849,2.9882,2.9939,2.9988,3.0,3.0012,3.005,3.0064,2.9891,2.9892,2.9892,0,2.9248,2.9338,2.9344,2.941,2.9443,2.9427,2.9498,2.9529,2.9591,2.9613,2.9589,2.9707,2.9737,2.9834,2.9862,2.9888,2.9905,2.9875,2.9998,3.001,3.002,3.0056,3.0071,2.9895,2.9895,2.9894,2.9894,0,2.9393,2.9456,2.9509,2.9568,2.9607,2.9677,2.969,2.9729,2.9726,2.9741,2.9822,2.9857,2.9915,2.9938,2.9937,3.0035,3.0019,2.9997,2.9952,3.0039,3.0073,3.0087,2.99,2.9899,2.9898,2.9897,0,0,2.9533,2.9593,2.9612,2.9637,2.9687,2.9734,2.9801,2.9858,2.9888,2.9932,2.9985,3.0066,3.0044,3.0077,3.0078,3.0122,3.0207,3.0093,3.0094,3.011,3.0312,3.0326,3.0343,3.0198,3.0201,3.0203,3.0307,0,2.9644,2.9761,2.9767,2.9873,2.9928,2.9912,2.997,3.0005,3.002,3.0068,3.0084,3.0139,3.0109,3.0128,3.017,3.0188,3.0248,3.0181,3.0245,3.0247,3.0231,3.0361,3.0377,3.0473,3.0321,3.0323,3.0325,0,2.9789,2.9836,2.9947,2.9985,3.0009,3.006,3.011,3.0157,3.0196,3.0203,3.0238,3.0232,3.0297,3.0252,3.034,3.0294,3.0321,3.0333,3.0337,3.0341,3.0289,3.0364,3.0505,3.0518,3.0347,3.0345,3.0343,0,2.9874,2.9965,3.0042,3.0064,3.0112,3.0148,3.017,3.0205,3.0238,3.0281,3.0301,3.0352,3.0379,3.0418,3.0424,3.0392,3.0511,3.0467,3.0516,3.0516,3.054,3.0538,3.0682,3.0563,3.0563,3.0562,3.0562,0,2.9996,3.0064,3.008,3.0127,3.0201,3.0207,3.0279,3.0298,3.0329,3.0378,3.0368,3.0413,3.0421,3.0468,3.0474,3.0543,3.0557,3.0562,3.0562,3.0561,3.056,3.0576,3.0568,3.0566,3.0565,3.0565,3.0564,0,3.0103,3.0117,3.0199,3.0237,3.0248,3.0301,3.0332,3.0376,3.0389,3.045,3.0464,3.0485,3.0538,3.055,3.0614,3.0618,3.0699,3.0694,3.0685,3.0684,3.073,3.0724,3.0888,3.0908,3.0779,3.078,3.0781,0,3.0178,3.0229,3.0272,3.0303,3.0326,3.0378,3.041,3.0417,3.045,3.0496,3.0533,3.0586,3.0628,3.0715,3.0734,3.0782,3.0776,3.083,3.0783,3.0779,3.0772,3.0767,3.077,3.0838,3.0839,3.0841,3.0842,0,3.0307,3.0311,3.0359,3.0407,3.0446,3.0485,3.0522,3.0548,3.0559,3.0597,3.0652,3.0684,3.0749,3.08,3.0847,3.0867,3.0855,3.0856,3.0869,3.0867,3.0858,3.0859,3.0706,3.0852,3.0851,3.085,3.085,3.0849,3.0398,3.0441,3.0477,3.0528,3.0557,3.0591,3.0632,3.065,3.0696,3.0748,3.0749,3.0808,3.0842,3.0904,3.0927,3.0971,3.0954,3.0974,3.0979,3.0982,3.0985,3.0854,3.098,3.098,3.098,3.098,3.0979,0,3.0523,3.0545,3.0593,3.0644,3.0684,3.067,3.0709,3.0743,3.0795,3.0828,3.0869,3.093,3.0978,3.1001,3.1048,3.1079,3.1074,3.1091,3.1087,3.1091,3.0999,3.0981,3.1094,3.1094,3.1094,3.1094,3.1094,3.1094,3.0593,3.0664,3.0672,3.0755,3.0776,3.0833,3.0856,3.0886,3.0912,3.098,3.1021,3.1035,3.1063,3.1112,3.1154,3.116,3.1176,3.1194,3.1196,3.111,3.1098,3.1087,3.107,3.1199,3.1199,3.1283,3.1284,3.1285]},{"header":{"parameterUnit":"m.s-1","parameterCategory":1,"la1":30.2991,"la2":30.254,"lo1":-89.0895,"lo2":-89.0444,"dy":0.0017,"dx":0.0017,"nx":28,"ny":28,"refTime":"2025-04-12T21:00:00:Z","depth":0,"parameterNumber":3,"parameterNumberName":"V-component_of_WINDS"},"data":[0,0,0,0,0,0,0,0,0,0,0,0,0,0,0,0,0,0,0,0,0,0,0,0,0,0,0,0,0,0,0,0,0,0,0,0,0,0,0,0,0,0,0,0,0,0,0,0,0,0,0,0,0,0,0,0,0,0,3.7099,3.7099,0,3.7155,3.7156,3.7157,3.7111,3.7109,3.7107,3.7105,3.7161,3.7165,3.7168,0,0,0,0,0,0,0,0,0,0,0,0,0,3.6947,3.695,3.7099,3.7099,3.71,3.7155,3.7156,3.7157,3.7111,3.7109,3.7106,3.7104,3.716,3.7164,3.7168,0,0,0,0,0,0,0,0,0,0,0,0,0,3.7009,3.6951,3.7099,3.7084,3.7083,3.7155,3.7156,3.7157,3.7112,3.7109,3.7106,3.7103,3.7159,3.7164,3.7169,3.7257,0,0,3.7184,3.7186,0,0,0,0,0,0,0,0,3.7006,3.7015,3.7085,3.7085,3.7084,3.7123,3.7123,3.7191,3.7112,3.7101,3.7105,3.7102,3.7151,3.7156,3.7173,3.726,3.7263,3.7184,3.7187,3.7189,3.7191,0,0,0,0,0,0,0,3.7002,3.7012,3.7121,3.7087,3.7086,3.7073,3.7079,3.7136,3.7141,3.7102,3.7098,3.7106,3.715,3.7169,3.7174,3.7263,3.7184,3.7189,3.7192,3.7194,3.7422,3.7425,0,0,0,0,0,0,3.6999,3.7009,3.7119,3.7123,3.7037,3.7078,3.7085,3.7114,3.7141,3.7142,3.7108,3.7103,3.7162,3.7169,3.7176,3.7279,3.7189,3.7194,3.7197,3.7419,3.7422,3.7426,0,0,0,0,0,0,3.6996,3.7009,3.7117,3.7065,3.7078,3.7084,3.7117,3.7116,3.7135,3.7146,3.7146,3.7126,3.716,3.7169,3.7237,3.728,3.7196,3.7201,3.7415,3.742,3.7424,3.7488,0,0,0,0,0,0,3.6992,3.7009,3.7044,3.7066,3.7081,3.7178,3.712,3.7119,3.7144,3.7138,3.7163,3.7164,3.7158,3.723,3.7242,3.7286,3.7205,3.7411,3.7417,3.7423,3.7482,3.7494,3.7504,0,0,0,0,0,3.6987,3.706,3.7046,3.7059,3.7125,3.7181,3.7189,3.7181,3.7148,3.7182,3.7188,3.7163,3.7274,3.7237,3.725,3.7296,3.7408,3.7415,3.7422,3.7476,3.7491,3.7504,0,0,0,0,0,0,3.7042,3.7063,3.7047,3.713,3.7154,3.7173,3.7216,3.7198,3.7231,3.7225,3.7212,3.7218,3.7289,3.73,3.7258,3.7382,3.7335,3.7345,3.7372,3.7387,3.7398,3.7393,3.7209,0,0,0,0,0,3.7064,3.7109,3.7124,3.7196,3.7208,3.721,3.7235,3.7226,3.725,3.726,3.7272,3.7295,3.7335,3.7362,3.7399,3.7483,3.7486,3.7521,3.7532,3.7542,3.755,3.7592,3.7607,3.7448,3.7448,3.7448,0,0,3.711,3.7127,3.7156,3.7207,3.7225,3.727,3.7219,3.727,3.7303,3.7268,3.7332,3.7341,3.7366,3.7442,3.7476,3.7453,3.7594,3.755,3.7558,3.7561,3.76,3.7615,3.7629,3.7453,3.7452,3.7452,0,0,3.7216,3.7234,3.7294,3.7312,3.7339,3.734,3.7354,3.7376,3.738,3.7444,3.7418,3.7456,3.7526,3.7544,3.7562,3.7672,3.7649,3.7684,3.7743,3.7784,3.7797,3.7808,3.7844,3.7858,3.7693,3.7693,3.7693,0,3.7269,3.7337,3.7327,3.7379,3.7401,3.7371,3.743,3.7448,3.7486,3.7501,3.7475,3.756,3.7575,3.7653,3.7679,3.7696,3.771,3.7681,3.7796,3.7807,3.7817,3.7851,3.7866,3.7697,3.7697,3.7696,3.7696,0,3.74,3.7447,3.7492,3.7529,3.7556,3.7611,3.7608,3.7636,3.7625,3.7627,3.7691,3.7708,3.7747,3.7765,3.7755,3.784,3.7825,3.7798,3.7751,3.7836,3.7868,3.7882,3.7703,3.7701,3.77,3.7699,0,0,3.7544,3.7572,3.7589,3.7603,3.763,3.7665,3.7718,3.7756,3.7779,3.7806,3.7848,3.7906,3.788,3.7901,3.7892,3.7929,3.8011,3.7896,3.7897,3.7915,3.8103,3.8122,3.8138,3.7996,3.7999,3.8001,3.81,0,3.7649,3.7741,3.7732,3.7819,3.7861,3.7831,3.7877,3.7897,3.79,3.7935,3.7938,3.7978,3.7943,3.7954,3.7989,3.7994,3.8048,3.7986,3.8033,3.8035,3.8027,3.8155,3.8176,3.8269,3.8113,3.8115,3.8116,0,3.7785,3.7815,3.7906,3.7923,3.794,3.7981,3.8013,3.8047,3.8068,3.8068,3.809,3.8074,3.8124,3.8077,3.8145,3.8104,3.8122,3.8127,3.813,3.8133,3.808,3.8159,3.8298,3.8312,3.8137,3.8135,3.8134,0,3.7877,3.7941,3.8002,3.8016,3.8038,3.8067,3.8078,3.8096,3.8118,3.8146,3.816,3.8193,3.8211,3.8237,3.8229,3.8196,3.8299,3.8251,3.8298,3.8298,3.832,3.8318,3.8462,3.8335,3.8335,3.8334,3.8334,0,3.7995,3.8051,3.8044,3.8082,3.8143,3.8131,3.8191,3.8198,3.8214,3.8251,3.8228,3.8263,3.8252,3.8286,3.828,3.8336,3.8345,3.8345,3.8342,3.8346,3.8346,3.8357,3.8349,3.8338,3.8337,3.8337,3.8336,0,3.8109,3.8107,3.8171,3.8186,3.8191,3.8235,3.8247,3.8281,3.8282,3.8329,3.8339,3.834,3.8378,3.8373,3.8417,3.8413,3.8481,3.8472,3.8474,3.8472,3.8517,3.8512,3.8672,3.8691,3.8554,3.8555,3.8556,0,3.8183,3.8225,3.8244,3.8267,3.8279,3.8317,3.8339,3.8328,3.8352,3.8377,3.8408,3.8445,3.8473,3.8536,3.8539,3.8571,3.8561,3.8615,3.8566,3.8567,3.8559,3.8556,3.8559,3.8624,3.8626,3.8627,3.8628,0,3.8315,3.8311,3.8344,3.8375,3.8402,3.8427,3.8449,3.8469,3.846,3.8487,3.8526,3.8548,3.8591,3.8627,3.8656,3.8666,3.8645,3.8644,3.8656,3.8659,3.8657,3.8656,3.8499,3.864,3.8639,3.8638,3.8637,3.8637,3.841,3.8444,3.8462,3.8498,3.8513,3.8534,3.8566,3.857,3.8602,3.8636,3.8628,3.8671,3.8688,3.8726,3.8738,3.8771,3.8751,3.8769,3.8773,3.8777,3.8781,3.8654,3.8776,3.8776,3.8776,3.8775,3.8775,0,3.8538,3.8547,3.8581,3.8611,3.8639,3.8617,3.864,3.8664,3.8703,3.8721,3.8748,3.8791,3.8825,3.8831,3.8862,3.8887,3.8878,3.8895,3.8892,3.8894,3.8799,3.8784,3.8902,3.8902,3.8902,3.8902,3.8902,3.8902,3.8608,3.8664,3.8662,3.8725,3.8733,3.8775,3.879,3.8808,3.8821,3.887,3.8898,3.8901,3.8913,3.8945,3.8974,3.8975,3.8986,3.9007,3.9004,3.8914,3.8901,3.8889,3.8875,3.901,3.901,3.9096,3.9097,3.9097]}]]